Location: Fort Worth, Tx
(32.7431°N, 97.3695°W)
Time: 06:06:22
(UTC-05:00)

Vanguard 3 - Visible Passes

Search period start: 23 February 2024 00:00
Search period end: 04 March 2024 00:00
Orbit: 508 x 3239 km, 33.4° (Epoch: 22 February)

Date Brightness Start Highest point End Pass type
(mag) Time Alt. Az. Time Alt. Az. Time Alt. Az.
23 Feb 10.6 00:24:01 10° W 00:33:32 36° W 00:33:32 36° W visible
23 Feb 9.6 05:16:28 18° SSE 05:16:28 18° SSE 05:18:00 10° SSE visible
23 Feb 10.1 20:49:05 10° SW 21:07:01 54° SSE 21:16:43 33° E visible
23 Feb 9.8 23:03:20 10° WSW 23:21:03 74° SW 23:21:03 74° SW visible
24 Feb 11.1 01:21:05 10° W 01:25:22 20° W 01:25:22 20° W visible
24 Feb 9.6 06:08:18 14° SSW 06:08:18 14° SSW 06:09:42 10° S visible
24 Feb 10.5 19:32:04 10° SSW 19:47:24 39° SE 20:04:12 10° E visible
24 Feb 9.8 21:43:44 10° WSW 22:03:01 72° SSE 22:08:30 55° E visible
24 Feb 10.3 23:59:53 10° W 00:12:49 50° W 00:12:49 50° W visible
25 Feb 10.2 20:25:24 10° SW 20:42:47 57° SSE 20:55:54 24° E visible
25 Feb 9.7 22:39:26 10° WSW 22:59:28 86° SSE 23:00:13 84° ESE visible
26 Feb 10.8 00:56:51 10° W 01:04:31 30° W 01:04:31 30° W visible
26 Feb 9.9 21:20:03 10° WSW 21:38:49 75° SSE 21:47:33 43° E visible
26 Feb 10.0 23:35:52 10° W 23:51:51 65° W 23:51:51 65° W visible
27 Feb 11.3 01:53:52 10° WNW 01:56:10 15° W 01:56:10 15° W visible
27 Feb 10.1 20:01:55 10° SW 20:18:33 60° SSE 20:34:50 17° ENE visible
27 Feb 9.7 22:15:41 10° WSW 22:35:21 87° S 22:39:08 68° E visible
28 Feb 10.5 00:32:41 10° W 00:43:26 41° W 00:43:26 41° W visible
28 Feb 10.0 20:56:33 10° WSW 21:14:35 77° SSE 21:26:21 33° E visible
28 Feb 9.8 23:11:59 10° W 23:30:39 81° WNW 23:30:39 81° WNW visible
29 Feb 11.0 01:29:34 10° WNW 01:34:57 23° W 01:34:57 23° W visible
29 Feb 10.1 19:38:38 10° SW 19:54:20 63° SSE 20:13:32 10° ENE visible
29 Feb 9.9 21:52:05 10° WSW 22:11:12 89° S 22:17:48 54° E visible
01 Mar 10.2 00:08:37 10° W 00:22:06 53° W 00:22:06 53° W visible
01 Mar 10.0 20:33:14 10° WSW 20:50:22 79° SSE 21:04:56 24° E visible
01 Mar 9.7 22:48:14 10° W 23:08:05 88° N 23:09:13 83° ENE visible
02 Mar 10.8 01:05:20 10° WNW 01:13:30 31° W 01:13:30 31° W visible
02 Mar 9.9 21:28:39 10° W 21:47:01 90° SSE 21:56:17 43° E visible
02 Mar 10.0 23:44:39 10° W 00:00:33 65° W 00:00:33 65° W visible
03 Mar 11.3 02:02:14 10° WNW 02:04:50 16° WNW 02:04:50 16° WNW visible
03 Mar 10.0 20:10:03 10° WSW 20:26:11 81° SSE 20:43:18 18° E visible
03 Mar 9.8 22:24:36 10° W 22:43:56 88° N 22:47:35 70° E visible
